User: anonymous   Login
Location: Unspecified
(0.0000°N, 0.0000°E)
Time: 16:58:21
(UTC+00:00)
Language:

Falconsat - Orbit

View from above orbital plane
View from above orbital plane
View from above satellite
View from above satellite

Ground track
Ground track

The orbit data is extracted from the following two-line orbital elements,

1 26064U 00004D   17265.12046754 -.00000016  00000-0  14566-4 0  9996
2 26064 100.2304 282.4853 0038282  50.3316 310.1230 14.36134813925025
Epoch (UTC): 22 September 2017 02:53:28
Eccentricity: 0.0038282
inclination: 100.2304°
perigee height: 744 km
apogee height: 798 km
right ascension of ascending node: 282.4853°
argument of perigee: 50.3316°
revolutions per day: 14.36134813
mean anomaly at epoch: 310.1230°
orbit number at epoch: 92502

The dashed part of the orbit path shows where the satellite is in the earth's shadow,  

DLR